Starlink 3252

operational
NORAD ID: 49733 Int'l Des: 2021-115 Owner: SPXS Country: US Constellation: starlink
LEOCIRCULAR

Starlink 3252について

説明を読み込み中...

リアルタイム位置

3D地球を読み込み中...

次回通過

高度履歴

Altitude vs Time

uPlot chart will show altitude changes over time

軌道要素

1 49733U 21115K 25258.17849677 .00000230 00000-0 32569-4 0 9991
2 49733 53.2200 227.0232 0001611 81.8741 278.2434 15.08841196208896
Epoch: Sep 15, 2025 • Age: 16 hours

現在のステータス

高度 544.6 km
速度 7.60 km/s
衛星直下点 50.56°N, 14.03°W
打ち上げ日 Dec 2, 2021
運用期間 3.7 years
タイプ internet

技術仕様

分類 Payload
質量 290.00 kg
乾燥質量 270.00 kg
総質量 290.00 kg
長さ 0.20 m
直径 2.80 m
スパン 9.00 m
形状 Box + pan
製造者 SPXS
バスタイプ Starlink
フェーズステータス In Orbit
所有者/国 SPXS/US

大規模コンステレーション

Loading constellations...